カタログに戻る

SL-12 R/B

AUX MOTOR

運用中HEO
NORAD 15714·ROCKET BODY·🇷🇺 Russia

打ち上げ May 17, 1985 から Baikonur Cosmodrome

Loading…

次のパス (今後24時間)

TLE

最新Source: Space-Track

元期: Sep 11, 2026, 22:35 UTC

1 15714U 85037G   26254.94141182  .00001953  00000-0  77803-3 0  9996
2 15714  51.8281 162.6636 5390975 141.2424 273.6578  4.92294490682738

AllMySatでSL-12 R/Bをリアルタイム追跡

Download on the App Store